Hourly Data Report for March 30, 2012

All times are specified in Local Standard Time (LST). Add 1 hour to adjust for Daylight Saving Time where and when it is observed.

HALIFAX STANFIELD INT'L A
NOVA SCOTIA

44°52'48.060" N
63°30'00.050" W
145.40 m
8202250
71395
YHZ

Download Data

Hourly Data (March 2012)
Hourly Data Report for March 30, 2012
TIME Temp Definition
°C
Dew Point Definition
°C
Rel Hum Definition
%
Wind Dir Definition
10's deg

Wind Spd Definition
km/h
Visibility Definition
km
Stn Press Definition
kPa
Hmdx Definition


Wind Chill Definition


Weather Definition


00:00 -2.1 -7.5 66 24 6 24.1 98.77   -4 Mainly Clear
01:00 -2.9 -7.3 72 16 9 24.1 98.73   -6 Mainly Clear
02:00 -2.6 -6.3 76 17 11 24.1 98.68   -7 Cloudy
03:00 -2.3 -6.4 73 18 9 24.1 98.67   -6 Cloudy
04:00 -2.1 -6.1 74 20 11 24.1 98.67   -6 Cloudy
05:00 -1.8 -5.1 78 20 9 24.1 98.67   -5 Cloudy
06:00 -1.6 -4.4 81 23 7 24.1 98.69   -4 Cloudy
07:00 -0.4 -3.6 79 24 9 24.1 98.72   -4 Cloudy
08:00 0.9 -3.4 73 27 9 24.1 98.73     Cloudy
09:00 2.0 -4.2 63 31 19 24.1 98.74     Cloudy
10:00 3.1 -7.1 47 24 13 24.1 98.79     Cloudy
11:00 3.7 -7.7 43 32 13 24.1 98.79     Cloudy
12:00 4.2 -6.1 47 34 26 24.1 98.79     Cloudy
13:00 4.8 -6.4 44 32 26 24.1 98.75     Cloudy
14:00 3.3 -5.9 51 32 28 24.1 98.75     Mostly Cloudy
15:00 3.8 -5.5 51 31 13 24.1 98.76     Mostly Cloudy
16:00 3.4 -5.2 53 1 20 24.1 98.81     Snow Showers
17:00 3.4 -9.0 40 35 24 24.1 98.86     Mostly Cloudy
18:00 3.0 -10.4 37 35 7 24.1 98.95     Mostly Cloudy
19:00 0.9 -11.4 39 33 6 24.1 99.07     Mainly Clear
20:00 1.6 -11.8 36 36 4 24.1 99.18     Mostly Cloudy
21:00 1.0 -10.7 41   0 24.1 99.23     Mostly Cloudy
22:00 -0.5 -10.3 47 30 6 24.1 99.27   -3 Mainly Clear
23:00 -1.2 -7.6 62 27 13 24.1 99.32   -5 Mainly Clear

Notes on Data Quality.

Legend

  • E = Estimated
  • M = Missing
  • NA = Not Available
Date modified: